Location: Les Jeannots
(43.2262°N, 5.5774°E)
Time: 02:20:33
(UTC+00:00)

Cosmos 1892 - Pass Details

Date: 05 July 2020
Orbit: 505 x 523 km, 82.5° (Epoch: 04 August)

Event Time Altitude Azimuth Distance (km) Brightness Sun altitude
Exits shadow 22:41:56 31° 260° (W) 901 3.9 -22.7°
Maximum altitude 22:42:36 34° 283° (WNW) 855 4.0 -22.7°
Drops below altitude 10° 22:46:06 10° 350° (N) 1,738 6.5 -22.8°
Sets 22:48:23 0° 360° (N) 2,632 7.6 -22.9°
